CAPE
0 0 0 0 0 0 0 0 0 0 0 0 0 0 0 0 0 0 0 0 0 0 0 0 0 1 9 8 3 8 8 4
0 0 0 0 0 0 0 0 0 0 0 0 0 0 0 0 0 0 0 0 0 0 0 0 0 5 0 0 0 0 1 1
0 0 0 0 0 0 0 0 0 0 0 0 0 0 0 0 0 0 0 0 0 0 0 0 0 0 0 0 0 0 1 0
0 0 0 0 0 0 0 0 0 0 0 0 0 0 0 0 0 0 0 0 0 0 0 0 0 0 0 0 0 0 1 1
0 0 0 0 0 0 0 0 0 0 0 0 0 0 0 0 0 0 0 0 0 0 0 0 0 0 0 0 0 0 1 2
0 0 0 0 0 0 0 0 0 0 0 0 0 0 0 0 0 0 0 0 0 0 0 0 0 0 0 1 2 1 1 1
0 0 0 0 0 0 0 0 0 0 0 0 0 0 0 0 0 0 0 0 0 0 0 0 0 0 0 0 7 0 0 1
0 0 0 0 0 0 0 0 0 0 0 0 0 0 0 0 0 0 0 0 0 0 0 0 0 0 0 0 1 7 10 14
0 0 0 0 0 0 0 0 0 0 0 0 0 0 0 0 0 0 0 0 0 0 0 0 0 0 0 0 0 0 4 8
0 0 0 0 0 0 0 0 0 0 0 0 0 0 0 0 0 0 0 0 0 0 0 0 0 0 0 0 0 0 0 0
0 0 0 0 0 0 0 0 0 0 0 0 0 0 0 0 0 0 0 0 0 0 0 0 0 0 0 0 0 0 0 0
0 0 0 0 0 0 0 0 0 0 0 0 0 0 0 0 0 0 0 0 0 0 0 0 0 0 0 0 0 0 0 0
0 0 0 0 0 0 0 0 0 0 0 0 0 0 0 0 0 0 0 0 0 0 0 0 0 0 0 0 0 0 0 0
0 0 0 0 0 0 0 0 0 0 0 0 0 0 0 0 0 0 0 0 0 0 0 0 0 0 0 0 0 0 0 0
0 0 0 0 0 0 0 0 0 0 0 0 0 0 0 0 0 0 0 0 0 0 0 0 0 0 0 0 0 0 0 0
0 0 0 0 0 0 0 0 0 0 0 0 0 0 0 0 0 0 0 0 0 0 0 0 0 0 0 0 0 0 0 0
0 0 0 0 0 0 0 0 0 0 0 0 0 0 0 0 0 0 0 0 0 0 0 0 0 0 0 0 0 0 0 0
0 0 0 0 0 0 0 0 0 0 0 0 0 0 0 0 0 0 0 0 0 0 0 0 0 0 0 0 0 0 0 0
0 0 0 0 0 0 0 0 0 0 0 0 0 0 0 0 0 0 0 0 0 0 0 0 0 0 0 0 0 0 0 0
1 3 0 0 0 0 0 0 0 0 0 0 0 0 0 0 0 0 0 0 0 0 0 0 0 0 0 0 0 0 0 0
CIN
0 0 0 0 0 0 0 0 0 0 0 0 0 0 0 0 0 0 0 0 0 0 0 0 0 -15 -44 -57 -64 -79 -85 -63
0 0 0 0 0 0 0 0 0 0 0 0 0 0 0 0 0 0 0 0 0 0 0 0 0 -79 0 0 0 0 -1 -3
0 0 0 0 0 0 0 0 0 0 0 0 0 0 0 0 0 0 0 0 0 0 0 0 0 0 0 0 0 0 0 -4
0 0 0 0 0 0 0 0 0 0 0 0 0 0 0 0 0 0 0 0 0 0 0 0 0 0 0 0 0 0 -1 -3
0 0 0 0 0 0 0 0 0 0 0 0 0 0 0 0 0 0 0 0 0 0 0 0 0 0 0 0 0 0 -1 -19
0 0 0 0 0 0 0 0 0 0 0 0 0 0 0 0 0 0 0 0 0 0 0 0 0 0 -22 -77 -67 -23 0 -1
0 0 0 0 0 0 0 0 0 0 0 0 0 0 0 0 0 0 0 0 0 0 0 0 0 -84 -8 0 -53 0 0 0
0 0 0 0 0 0 0 0 0 0 0 0 0 0 0 0 0 0 0 0 0 0 0 0 0 0 0 0 -114 -86 -68 -54
0 0 0 0 0 0 0 0 0 0 0 0 0 0 0 0 0 0 0 0 0 0 0 0 0 0 0 0 0 -8 -97 -91
0 0 0 0 0 0 0 0 0 0 0 0 0 0 0 0 0 0 0 0 0 0 0 0 0 0 0 0 0 0 0 0
0 0 0 0 0 0 0 0 0 0 0 0 0 0 0 0 0 0 0 0 0 0 0 0 0 0 0 0 0 0 0 0
0 0 0 0 0 0 0 0 0 0 0 0 0 0 0 0 0 0 0 0 0 0 0 0 0 0 0 0 0 0 0 0
0 0 0 0 0 0 0 0 0 0 0 0 0 0 0 0 0 0 0 0 0 0 0 0 0 0 0 0 0 0 0 0
0 0 0 0 0 0 0 0 0 0 0 0 0 0 0 0 0 0 0 0 0 0 0 0 0 0 0 0 0 0 0 0
0 0 0 0 0 0 0 0 0 0 0 0 0 0 0 0 0 0 0 0 0 0 0 0 0 0 0 0 0 0 0 0
0 0 0 0 0 0 0 0 0 0 0 0 0 0 0 0 0 0 0 0 0 0 0 0 0 0 0 0 0 0 0 0
0 0 0 0 0 0 0 0 0 0 0 0 0 0 0 0 0 0 0 0 0 0 0 0 0 0 0 0 0 0 0 0
0 0 0 0 0 0 0 0 0 0 0 0 0 0 0 0 0 0 0 0 0 0 0 0 0 0 0 0 0 0 0 0
0 0 0 0 0 0 0 0 0 0 0 0 0 0 0 0 0 0 0 0 0 0 0 0 0 0 0 0 0 0 0 0
-197 -364 -12 0 0 0 0 0 0 0 0 0 0 0 0 0 0 0 0 0 0 0 0 0 0 0 0 0 0 0 0 0
Wind_Speed
16 19 18 16 17 18 15 14 15 14 14 15 16 16 18 18 20 21 22 24 24 23 23 24 22 12 10 12 12 9 9 12
18 20 19 18 19 19 17 16 16 16 16 18 18 19 20 21 24 24 25 25 26 26 24 21 22 17 12 9 7 4 6 8
19 20 19 19 20 20 18 17 17 18 19 19 19 21 23 25 26 27 27 27 26 27 27 27 15 16 12 8 7 6 5 3
19 21 20 21 21 21 20 19 19 19 20 20 21 23 23 25 26 27 26 26 25 25 26 24 25 18 11 9 8 9 8 4
19 22 22 22 22 22 21 21 20 21 21 23 24 24 25 25 25 25 25 24 24 24 24 24 24 15 14 9 9 9 7 2
20 23 23 23 23 23 22 21 22 23 24 24 25 25 25 25 26 26 24 24 25 25 24 22 23 20 17 4 6 7 5 1
20 24 25 25 25 24 23 23 23 24 25 25 24 24 24 26 26 25 23 24 25 25 24 25 26 27 28 26 10 3 2 5
21 22 24 25 25 25 24 25 24 24 26 25 24 24 25 26 25 25 23 23 24 25 25 25 27 29 29 29 30 30 30 31
22 21 23 27 25 24 25 25 25 25 26 25 24 26 25 26 25 25 25 24 26 26 27 27 28 28 29 29 30 29 30 30
24 24 24 24 26 24 23 25 27 25 25 25 24 26 25 24 24 25 24 25 26 26 27 27 26 26 28 30 29 29 30 32
24 25 23 23 24 25 24 24 25 25 24 23 23 23 24 23 21 21 23 25 25 26 27 27 27 27 27 27 28 27 27 27
22 22 24 23 24 25 26 21 23 24 25 25 22 21 22 24 23 23 25 26 26 26 27 27 27 27 26 26 27 26 26 26
19 22 23 23 22 25 22 21 22 22 25 25 25 23 22 22 25 27 27 27 26 25 26 27 28 27 26 25 25 24 23 21
17 18 18 19 20 21 21 20 22 22 20 24 27 26 24 21 22 24 23 29 28 27 25 25 26 25 25 24 21 19 17 16
16 20 19 17 18 19 21 20 20 22 22 20 23 26 25 23 23 22 21 10 7 24 25 24 22 21 20 19 19 14 13 12
16 15 14 15 15 19 19 20 20 20 20 20 19 18 21 19 20 22 19 18 18 11 2 12 16 13 12 11 10 7 5 8
13 16 18 15 13 15 15 18 19 19 19 19 18 17 15 15 14 13 14 12 11 5 8 10 9 5 4 2 7 8 10 12
12 13 19 19 15 15 15 19 18 16 19 19 18 14 11 11 10 10 10 9 7 7 5 5 6 6 5 6 6 9 8 9
21 12 16 21 21 19 14 17 18 17 17 17 19 15 17 17 13 12 10 10 10 9 10 5 7 6 8 9 9 9 11 11
17 16 17 21 22 19 16 18 18 16 15 15 16 18 14 15 18 14 13 11 10 10 8 7 7 6 6 8 10 10 10 9
Wind_Direction
114 128 128 125 127 131 123 115 113 99 95 99 92 87 83 103 113 138 138 141 137 156 160 158 176 215 219 212 210 215 213 196
121 132 133 130 133 135 129 123 114 104 98 105 93 95 92 100 111 127 133 142 126 136 161 181 178 197 217 224 232 250 230 217
134 138 136 136 136 139 133 125 115 115 112 111 98 99 93 106 98 108 115 126 131 126 115 135 209 208 226 240 238 243 243 260
136 141 139 143 142 142 139 132 126 124 121 118 112 109 94 102 102 107 106 106 109 106 121 110 125 201 237 245 261 251 254 276
141 148 147 146 146 145 144 139 129 131 130 131 129 114 113 114 115 115 111 111 115 118 121 135 132 79 82 246 270 258 255 304
145 149 150 148 146 146 144 139 137 139 139 137 132 124 123 120 122 126 123 118 123 135 131 111 115 106 100 314 257 235 240 332
146 149 150 148 148 148 145 143 141 144 145 140 134 130 127 129 130 135 132 128 133 136 136 129 121 141 149 150 209 246 43 71
143 143 148 149 151 147 147 149 145 147 149 145 138 136 132 136 137 142 142 141 135 137 138 142 138 143 151 151 148 148 146 151
145 142 148 155 150 147 151 152 154 152 152 148 143 146 141 144 141 143 140 134 130 135 137 146 143 148 150 149 146 151 152 152
153 151 152 149 152 150 152 158 161 153 149 149 146 150 148 140 138 143 137 129 130 135 136 144 157 156 150 150 151 151 147 138
158 157 153 152 154 157 157 161 158 155 151 150 148 146 149 143 134 131 135 139 140 148 151 153 152 151 155 156 154 154 154 158
159 156 159 159 160 161 166 154 155 158 161 160 153 146 147 152 151 147 150 154 154 156 161 164 164 163 159 156 155 155 149 145
167 163 164 164 160 165 161 158 157 158 163 165 164 157 153 151 159 164 164 167 159 157 165 166 166 168 165 156 148 147 147 138
178 170 166 162 162 164 165 162 162 161 161 166 170 168 162 156 154 166 235 196 176 179 173 163 170 169 165 160 153 146 135 128
203 178 176 170 165 164 166 164 163 165 164 163 165 168 167 165 166 164 163 268 278 174 180 175 170 166 162 162 163 149 144 140
202 217 198 183 174 168 167 167 167 167 166 164 164 163 165 165 168 170 167 167 167 156 280 157 167 163 163 162 155 140 151 168
236 234 234 207 194 182 174 174 174 173 170 170 169 170 170 166 165 169 171 170 171 180 285 289 293 290 288 217 174 185 184 186
235 229 222 228 209 198 185 181 182 183 178 176 175 180 191 191 187 184 187 189 193 197 219 217 274 284 251 217 204 195 198 196
256 246 234 232 240 244 226 190 190 189 185 183 183 188 185 187 197 199 211 222 213 210 200 242 207 212 209 204 206 202 199 203
264 260 255 247 246 245 242 240 234 222 210 199 191 190 201 199 194 201 204 209 221 223 232 254 216 230 249 222 212 217 223 231